Regional Weather Roundup
Issued by NWS Burlington, VT

Home | Current Version | Previous Version | Text Only | Print | Product List | Glossary On
Versions: 1 2 3 4 5 6 7 8 9 10 11 12 13 14 15 16 17 18 19 20 21 22 23 24 25 26 27 28 29 30 31 32 33 34 35 36 37 38 39 40 41 42 43 44 45 46 47 48 49 50
000
ASUS41 KBTV 280010
RWRBTV
VERMONT REGIONAL WEATHER ROUNDUP
NATIONAL WEATHER SERVICE BURLINGTON VT
700 PM EST THU NOV 27 2014

NOTE: "FAIR" INDICATES FEW OR NO CLOUDS BELOW 12,000 FEET WITH NO
SIGNIFICANT WEATHER AND/OR OBSTRUCTIONS TO VISIBILITY.

* THESE REPORTS ARE NOT UNDER NWS QUALITY CONTROL AND/OR DO NOT
  REPORT WEATHER SUCH AS PRECIPITATION AND FOG.

VTZ001>019-280100-
_____VERMONT_____


CITY           SKY/WX    TMP DP  RH WIND       PRES   REMARKS
BURLINGTON     CLOUDY    28  19  69 NE7       30.04R
6HR MIN TEMP:  28; 6HR MAX TEMP:  30;

MONTPELIER     CLOUDY    24  20  84 CALM      30.01S
6HR MIN TEMP:  24; 6HR MAX TEMP:  26;

MORRISVILLE    CLOUDY    25  19  78 NW5       30.02S
6HR MIN TEMP:  25; 6HR MAX TEMP:  28;

ST. JOHNSBURY*   N/A     27  21  78 MISG      29.99R
6HR MIN TEMP:  27; 6HR MAX TEMP:  28;

LYNDONVILLE*   CLOUDY    25  19  78 NW3       29.98S
6HR MIN TEMP:  25; 6HR MAX TEMP:  26;

MIDDLEBURY*    CLOUDY    28  22  78 CALM      30.01R
6HR MIN TEMP:  28; 6HR MAX TEMP:  30;

RUTLAND*       CLOUDY    27  21  80 CALM      29.99R
6HR MIN TEMP:  27; 6HR MAX TEMP:  28;

HIGHGATE*      FAIR      24  20  85 CALM      30.04R
6HR MIN TEMP:  24; 6HR MAX TEMP:  29;

NEWPORT*       CLOUDY    23  18  80 NW3       30.00R
6HR MIN TEMP:  23; 6HR MAX TEMP:  26;

BENNINGTON     LGT SNOW  27  23  85 CALM      29.98S FOG
6HR MIN TEMP:  27; 6HR MAX TEMP:  29; 6HR PCP: TRACE;

SUTTON*          N/A      1 N/A N/A MISG        N/A

_____LAKE CHAMPLAIN_____


CITY           SKY/WX    TMP DP  RH WIND       PRES   REMARKS
COLCHESTER RF*   N/A     32  23  69 E10         N/A
DIAMOND ISL*     N/A     32  23  69 N12         N/A

$$

NYZ007-026>031-035-052-083-280100-
_____NORTHERN NEW YORK_____


CITY           SKY/WX    TMP DP  RH WIND       PRES   REMARKS
PLATTSBURGH    CLOUDY    27  22  81 W5        30.04S
6HR MIN TEMP:  27; 6HR MAX TEMP:  29;

SARANAC LAKE   CLOUDY    23  18  81 CALM      29.94S
6HR MIN TEMP:  23; 6HR MAX TEMP:  24;

MASSENA        CLOUDY    28  19  69 NW3       30.07S
6HR MIN TEMP:  28; 6HR MAX TEMP:  31;

OGDENSBURG*    LGT SNOW  28  25  86 NW3       30.06S
POTSDAM*       CLOUDY    28  23  80 CALM      30.04S
WATERTOWN      LGT SNOW  29  23  78 CALM      30.06S
6HR MIN TEMP:  29; 6HR MAX TEMP:  33; 6HR PCP:  0.02;

FT DRUM        LGT SNOW  25  24  97 CALM      30.03S FOG
6HR MIN TEMP:  25; 6HR MAX TEMP:  28; 6HR PCP: TRACE;

ALBANY         LGT SNOW  29  26  89 CALM      30.04R FOG
6HR MIN TEMP:  29; 6HR MAX TEMP:  32; 6HR PCP:  0.02;

GLENS FALLS    LGT SNOW  29  24  82 CALM      30.03R
6HR MIN TEMP:  29; 6HR MAX TEMP:  31; 6HR PCP: TRACE;


$$
NHZ002-005-011-280100-
_____NEW HAMPSHIRE_____


CITY           SKY/WX    TMP DP  RH WIND       PRES   REMARKS
LEBANON        CLOUDY    29  23  78 NE5       29.99R
6HR MIN TEMP:  29; 6HR MAX TEMP:  31;

KEENE            N/A    N/A N/A N/A MISG        N/A
                                      6HR PCP:  0.03;

MT WASHINGTON  MOCLDY    10   5  79 N10         N/A  WCI  -3
6HR MIN TEMP:   9; 6HR MAX TEMP:  14;

PLYMOUTH       MOCLDY    26  24  93 CALM      29.99R
6HR MIN TEMP:  26; 6HR MAX TEMP:  32;

WHITEFIELD     CLOUDY    25  19  78 CALM      29.98R
6HR MIN TEMP:  25; 6HR MAX TEMP:  27;


$$

_____REGIONAL QUEBEC LOCATIONS_____


CITY           SKY/WX    TMP DP  RH WIND       PRES   REMARKS
MONTREAL       MOCLDY    27  18  69 W8        30.05R
QUEBEC CITY    PTCLDY    25  14  63 NW5       30.00S
SHERBROOKE     CLOUDY    23  19  86 CALM      29.99F

_____REGIONAL ONTARIO LOCATIONS_____


CITY           SKY/WX    TMP DP  RH WIND       PRES   REMARKS
OTTAWA         FLURRIES  25  16  68 NW8       30.06S

______KEY______
VSB  - VISIBILITY IN MILES
WCI  - WIND CHILL INDEX
HX   - HEAT INDEX
$$
NNNN


USA.gov is the U.S. government's official web portal to all federal, state and local government web resources and services.